Regional Weather Roundup
Issued by NWS

Home | Current Version | Previous Version | Text Only | Print | Product List | Glossary Off
Versions: 1 2 3 4 5 6 7 8 9 10 11 12 13 14 15 16 17 18 19 20 21 22 23 24 25 26 27 28 29 30 31 32 33 34 35 36 37 38 39 40 41 42 43 44 45 46 47 48 49 50

000
ASUS45 KBOI 230810
RWRID

IDAHO REGIONAL WEATHER ROUNDUP
NATIONAL WEATHER SERVICE BOISE ID
100 AM MST TUE JAN 23 2018

NOTE: "FAIR" INDICATES FEW OR NO CLOUDS BELOW 12000 FEET
WITH NO SIGNIFICANT WEATHER AND/OR OBSTRUCTIONS TO VISIBILITY

IDZ012-014-230900-
SOUTHWEST IDAHO


CITY           SKY/WX    TMP DP  RH WIND       PRES   REMARKS
BOISE          CLEAR     30  26  85 SE8       30.33S WCI  22
CALDWELL       CLEAR     28  26  92 E5        30.34F WCI  23
MOUNTAIN HOME  CLEAR     26  26 100 NE5       30.33S WCI  21
$$

IDZ016-017-230900-
SOUTHCENTRAL IDAHO


CITY           SKY/WX    TMP DP  RH WIND       PRES   REMARKS
BURLEY         CLEAR     30  24  78 SW9       30.28S WCI  22
JEROME         CLEAR     28  23  81 S3        30.30S
TWIN FALLS     CLEAR     27  24  89 S12       30.30S WCI  17
$$

IDZ019>023-230900-
SOUTHEAST IDAHO


CITY           SKY/WX    TMP DP  RH WIND       PRES   REMARKS
IDAHO FALLS    CLOUDY    23  22  96 N5        30.27F WCI  17
POCATELLO      MOCLDY    31  26  82 SW9       30.28F WCI  23
REXBURG        CLOUDY    25  25 100 SW7       30.25F FOG     WCI  17
$$

IDZ006-010-011-018-031-032-230900-
CENTRAL IDAHO MOUNTAINS


CITY           SKY/WX    TMP DP  RH WIND       PRES   REMARKS
MCCALL         CLOUDY    24  23  96 CALM      30.24S
HAILEY         CLEAR     18  12  79 NW13      30.27S WCI   4
STANLEY          N/A      8   3  80 SE7       30.25R WCI  -3
SALMON         CLOUDY    23  21  92 CALM      30.29S
CHALLIS        MOCLDY    20  17  88 SE5       30.26R WCI  13
$$

IDZ002-004-006-007-026-230900-
NORTHERN IDAHO


CITY           SKY/WX    TMP DP  RH WIND       PRES   REMARKS
LEWISTON       PTCLDY    33  30  88 CALM      30.29F
LOWELL           N/A     35  33  92 CALM      30.35F
COEUR D`ALENE  CLEAR     31  29  92 SE3       30.25S
MULLAN PASS    LGT SNOW  21  19  92 VRB3      30.12S FOG
$$



USA.gov is the U.S. government's official web portal to all federal, state and local government web resources and services.